Wetterdaten: Woche 11.01.10 - 17.01.10 (KW2)
Datum Zeit Temperatur Luftfeuchte Luftdruck Niederschlag Windrichtung Wind
11.01.2010 00:00 -4,9 C 91 % 1015,9 hPa 0,0 l/m W-SW 2,3 km/h (1 Bft)
11.01.2010 01:00 -5,3 C 90 % 1015,9 hPa 0,0 l/m SW 2,0 km/h (1 Bft)
11.01.2010 02:00 -5,8 C 91 % 1015,9 hPa 0,0 l/m N 1,1 km/h (0 Bft)
11.01.2010 03:00 -5,6 C 92 % 1016,1 hPa 0,0 l/m SW 1,6 km/h (1 Bft)
11.01.2010 04:00 -5,6 C 92 % 1016,0 hPa 0,0 l/m N 0,4 km/h (0 Bft)
11.01.2010 05:00 -5,3 C 93 % 1015,9 hPa 0,0 l/m W-SW 1,6 km/h (1 Bft)
11.01.2010 06:00 -5,1 C 91 % 1015,8 hPa 0,2 l/m W-SW 3,7 km/h (1 Bft)
11.01.2010 07:00 -5,1 C 91 % 1015,7 hPa 0,0 l/m N 1,3 km/h (1 Bft)
11.01.2010 08:00 -5,1 C 93 % 1015,8 hPa 0,2 l/m N 1,2 km/h (1 Bft)
11.01.2010 09:00 -4,7 C 93 % 1016,1 hPa 0,2 l/m N 1,6 km/h (1 Bft)
11.01.2010 10:00 -3,8 C 91 % 1016,1 hPa 0,0 l/m W-SW 3,2 km/h (1 Bft)
11.01.2010 11:00 -2,9 C 87 % 1015,7 hPa 0,2 l/m S-SW 6,0 km/h (2 Bft)
11.01.2010 12:00 -2,8 C 88 % 1015,4 hPa 0,2 l/m S-SW 6,4 km/h (2 Bft)
11.01.2010 13:00 -2,4 C 87 % 1015,0 hPa 0,0 l/m S-SW 7,2 km/h (2 Bft)
11.01.2010 14:00 -2,2 C 86 % 1015,0 hPa 0,0 l/m SW 6,4 km/h (2 Bft)
11.01.2010 15:00 -2,5 C 87 % 1015,2 hPa 0,2 l/m SW 6,1 km/h (2 Bft)
11.01.2010 16:00 -3,1 C 89 % 1015,6 hPa 0,4 l/m SW 5,5 km/h (1 Bft)
11.01.2010 17:00 -3,7 C 92 % 1016,1 hPa 0,4 l/m SW 4,9 km/h (1 Bft)
11.01.2010 18:00 -3,9 C 93 % 1016,4 hPa 0,2 l/m S-SW 4,5 km/h (1 Bft)
11.01.2010 19:00 -4,0 C 94 % 1016,8 hPa 0,4 l/m SW 4,7 km/h (1 Bft)
11.01.2010 20:00 -4,0 C 94 % 1016,9 hPa 0,6 l/m SW 6,3 km/h (2 Bft)
11.01.2010 21:00 -4,1 C 94 % 1017,0 hPa 0,8 l/m W 4,1 km/h (1 Bft)
11.01.2010 22:00 -4,1 C 94 % 1017,3 hPa 0,4 l/m W-SW 1,9 km/h (1 Bft)
11.01.2010 23:00 -4,2 C 94 % 1017,3 hPa 0,0 l/m N 2,0 km/h (1 Bft)
12.01.2010 00:00 -4,3 C 94 % 1017,4 hPa 0,2 l/m N 1,3 km/h (1 Bft)
12.01.2010 01:00 -4,3 C 94 % 1017,3 hPa 0,0 l/m S-SW 2,9 km/h (1 Bft)
12.01.2010 02:00 -4,4 C 95 % 1017,4 hPa 0,0 l/m N 1,6 km/h (1 Bft)
12.01.2010 03:00 -4,4 C 95 % 1017,5 hPa 0,0 l/m N 1,7 km/h (1 Bft)
12.01.2010 04:00 -4,4 C 95 % 1017,6 hPa 0,0 l/m N 0,4 km/h (0 Bft)
12.01.2010 05:00 -4,5 C 95 % 1017,6 hPa 0,0 l/m N 0,0 km/h (0 Bft)
12.01.2010 06:00 -4,5 C 95 % 1017,4 hPa 0,0 l/m N 0,0 km/h (0 Bft)
12.01.2010 07:00 -4,5 C 95 % 1017,2 hPa 0,0 l/m N 0,4 km/h (0 Bft)
12.01.2010 08:00 -4,5 C 95 % 1016,9 hPa 0,0 l/m N 0,0 km/h (0 Bft)
12.01.2010 09:00 -4,2 C 96 % 1016,6 hPa 0,0 l/m N 0,5 km/h (0 Bft)
12.01.2010 10:00 -3,6 C 95 % 1015,9 hPa 0,0 l/m O-SO 2,0 km/h (1 Bft)
12.01.2010 11:00 -2,6 C 93 % 1015,1 hPa 0,0 l/m O-NO 3,5 km/h (1 Bft)
12.01.2010 12:00 -1,8 C 91 % 1014,0 hPa 0,0 l/m O-NO 5,6 km/h (1 Bft)
12.01.2010 13:00 -1,7 C 90 % 1013,0 hPa 0,0 l/m O-NO 7,9 km/h (2 Bft)
12.01.2010 14:00 -1,5 C 88 % 1012,3 hPa 0,0 l/m O-NO 7,5 km/h (2 Bft)
12.01.2010 15:00 -1,7 C 89 % 1012,0 hPa 0,0 l/m NO 8,2 km/h (2 Bft)
12.01.2010 16:00 -2,4 C 90 % 1011,0 hPa 0,0 l/m O-NO 8,2 km/h (2 Bft)
12.01.2010 17:00 -2,8 C 92 % 1010,4 hPa 0,0 l/m O 10,7 km/h (2 Bft)
12.01.2010 18:00 -3,0 C 93 % 1009,7 hPa 0,0 l/m O-NO 9,7 km/h (2 Bft)
12.01.2010 19:00 -3,1 C 93 % 1009,3 hPa 0,0 l/m O 9,8 km/h (2 Bft)
12.01.2010 20:00 -3,3 C 94 % 1009,0 hPa 0,0 l/m O-SO 9,3 km/h (2 Bft)
12.01.2010 21:00 -3,6 C 94 % 1008,6 hPa 0,0 l/m O-NO 8,4 km/h (2 Bft)
12.01.2010 22:00 -3,6 C 95 % 1007,9 hPa 0,0 l/m O-NO 8,0 km/h (2 Bft)
12.01.2010 23:00 -3,6 C 95 % 1007,3 hPa 0,0 l/m O-NO 8,2 km/h (2 Bft)
13.01.2010 00:00 -3,7 C 95 % 1006,7 hPa 0,0 l/m O-NO 8,4 km/h (2 Bft)
13.01.2010 01:00 -3,8 C 95 % 1006,4 hPa 0,0 l/m NO 8,4 km/h (2 Bft)
13.01.2010 02:00 -3,9 C 95 % 1006,8 hPa 0,0 l/m O-NO 7,1 km/h (2 Bft)
13.01.2010 03:00 -4,0 C 96 % 1007,3 hPa 0,0 l/m N 2,4 km/h (1 Bft)
13.01.2010 04:00 -4,1 C 96 % 1006,6 hPa 0,0 l/m O 2,7 km/h (1 Bft)
13.01.2010 05:00 -4,2 C 96 % 1005,9 hPa 0,0 l/m SO 3,2 km/h (1 Bft)
13.01.2010 06:00 -4,3 C 96 % 1005,8 hPa 0,0 l/m O 2,3 km/h (1 Bft)
13.01.2010 07:00 -4,4 C 96 % 1006,1 hPa 0,0 l/m O 3,5 km/h (1 Bft)
13.01.2010 08:00 -4,4 C 95 % 1006,7 hPa 0,0 l/m O-NO 4,0 km/h (1 Bft)
13.01.2010 09:00 -4,1 C 95 % 1007,2 hPa 0,0 l/m NO 4,5 km/h (1 Bft)
13.01.2010 10:00 -3,3 C 94 % 1007,7 hPa 0,0 l/m NO 3,5 km/h (1 Bft)
13.01.2010 11:00 -2,3 C 90 % 1008,0 hPa 0,0 l/m NW 2,4 km/h (1 Bft)
13.01.2010 12:00 -1,6 C 88 % 1008,0 hPa 0,0 l/m NW 3,2 km/h (1 Bft)
13.01.2010 13:00 -1,5 C 88 % 1008,0 hPa 0,0 l/m NW 4,3 km/h (1 Bft)
13.01.2010 14:00 -1,5 C 90 % 1008,1 hPa 0,0 l/m NW 3,7 km/h (1 Bft)
13.01.2010 15:00 -1,4 C 91 % 1008,1 hPa 0,0 l/m W-NW 4,5 km/h (1 Bft)
13.01.2010 16:00 -1,7 C 93 % 1008,3 hPa 0,0 l/m W-NW 3,9 km/h (1 Bft)
13.01.2010 17:00 -1,7 C 95 % 1008,7 hPa 0,2 l/m SW 3,5 km/h (1 Bft)
13.01.2010 18:00 -1,6 C 96 % 1008,9 hPa 0,2 l/m S 5,1 km/h (1 Bft)
13.01.2010 19:00 -1,4 C 97 % 1009,2 hPa 0,2 l/m S 3,7 km/h (1 Bft)
13.01.2010 20:00 -1,0 C 97 % 1009,4 hPa 0,2 l/m S 1,9 km/h (1 Bft)
13.01.2010 21:00 -0,7 C 98 % 1009,5 hPa 0,0 l/m S 2,8 km/h (1 Bft)
13.01.2010 22:00 -0,2 C 98 % 1009,4 hPa 0,2 l/m S 3,3 km/h (1 Bft)
13.01.2010 23:00 0,1 C 98 % 1009,3 hPa 0,2 l/m S 5,2 km/h (1 Bft)
14.01.2010 00:00 0,2 C 98 % 1009,2 hPa 0,0 l/m S-SW 5,1 km/h (1 Bft)
14.01.2010 01:00 0,2 C 98 % 1009,0 hPa 0,0 l/m S-SW 1,3 km/h (1 Bft)
14.01.2010 02:00 0,3 C 98 % 1008,8 hPa 0,0 l/m N 0,0 km/h (0 Bft)
14.01.2010 03:00 0,3 C 98 % 1008,5 hPa 0,0 l/m N 0,0 km/h (0 Bft)
14.01.2010 04:00 0,2 C 98 % 1008,0 hPa 0,0 l/m N 0,4 km/h (0 Bft)
14.01.2010 05:00 0,2 C 98 % 1007,8 hPa 0,0 l/m S-SW 2,3 km/h (1 Bft)
14.01.2010 06:00 -0,0 C 98 % 1007,7 hPa 0,0 l/m S-SW 4,3 km/h (1 Bft)
14.01.2010 07:00 -0,8 C 98 % 1007,7 hPa 0,0 l/m NW 3,6 km/h (1 Bft)
14.01.2010 08:00 -1,1 C 98 % 1007,7 hPa 0,0 l/m NO 3,5 km/h (1 Bft)
14.01.2010 09:00 -0,8 C 98 % 1007,7 hPa 0,0 l/m N-NO 4,7 km/h (1 Bft)
14.01.2010 10:00 -0,3 C 98 % 1007,6 hPa 0,0 l/m NO 5,2 km/h (1 Bft)
14.01.2010 11:00 0,2 C 97 % 1007,3 hPa 0,0 l/m NO 6,5 km/h (2 Bft)
14.01.2010 12:00 0,9 C 95 % 1006,8 hPa 0,0 l/m N-NO 7,5 km/h (2 Bft)
14.01.2010 13:00 0,9 C 93 % 1006,2 hPa 0,0 l/m NO 11,4 km/h (2 Bft)
14.01.2010 14:00 0,6 C 93 % 1006,0 hPa 0,0 l/m O-NO 12,8 km/h (3 Bft)
14.01.2010 15:00 0,1 C 94 % 1006,3 hPa 0,0 l/m NO 9,9 km/h (2 Bft)
14.01.2010 16:00 -0,2 C 95 % 1006,5 hPa 0,0 l/m N-NO 9,9 km/h (2 Bft)
14.01.2010 17:00 -0,6 C 95 % 1006,7 hPa 0,0 l/m O-NO 13,0 km/h (3 Bft)
14.01.2010 18:00 -0,8 C 95 % 1007,4 hPa 0,0 l/m O-NO 11,3 km/h (2 Bft)
14.01.2010 19:00 -1,1 C 95 % 1008,4 hPa 0,0 l/m O-NO 12,5 km/h (3 Bft)
14.01.2010 20:00 -1,6 C 95 % 1009,0 hPa 0,0 l/m O-NO 11,0 km/h (2 Bft)
14.01.2010 21:00 -2,1 C 95 % 1009,8 hPa 0,0 l/m O-NO 11,0 km/h (2 Bft)
14.01.2010 22:00 -2,5 C 96 % 1010,6 hPa 0,0 l/m NO 8,7 km/h (2 Bft)
14.01.2010 23:00 -2,8 C 97 % 1011,7 hPa 0,0 l/m O-NO 6,7 km/h (2 Bft)
15.01.2010 00:00 -3,0 C 97 % 1012,4 hPa 0,0 l/m O-NO 6,1 km/h (2 Bft)
15.01.2010 01:00 -3,2 C 97 % 1012,9 hPa 0,0 l/m O-NO 5,7 km/h (1 Bft)
15.01.2010 02:00 -3,3 C 97 % 1013,8 hPa 0,0 l/m NO 4,8 km/h (1 Bft)
15.01.2010 03:00 -3,3 C 97 % 1014,7 hPa 0,0 l/m NO 4,8 km/h (1 Bft)
15.01.2010 04:00 -3,4 C 97 % 1015,6 hPa 0,0 l/m NO 3,2 km/h (1 Bft)
15.01.2010 05:00 -3,4 C 97 % 1016,5 hPa 0,0 l/m NO 2,3 km/h (1 Bft)
15.01.2010 06:00 -3,4 C 97 % 1017,7 hPa 0,0 l/m N-NO 4,0 km/h (1 Bft)
15.01.2010 07:00 -3,3 C 97 % 1018,7 hPa 0,0 l/m N 2,3 km/h (1 Bft)
15.01.2010 08:00 -3,2 C 97 % 1019,6 hPa 0,0 l/m O-NO 2,4 km/h (1 Bft)
15.01.2010 09:00 -2,9 C 97 % 1020,3 hPa 0,0 l/m NO 2,4 km/h (1 Bft)
15.01.2010 10:00 -2,3 C 97 % 1021,1 hPa 0,0 l/m N 1,3 km/h (1 Bft)
15.01.2010 11:00 -1,0 C 96 % 1021,4 hPa 0,0 l/m N 0,7 km/h (0 Bft)
15.01.2010 12:00 0,1 C 93 % 1021,7 hPa 0,0 l/m N 0,0 km/h (0 Bft)
15.01.2010 13:00 0,7 C 91 % 1022,0 hPa 0,0 l/m NO 1,2 km/h (1 Bft)
15.01.2010 14:00 0,5 C 91 % 1022,7 hPa 0,0 l/m O-NO 1,9 km/h (1 Bft)
15.01.2010 15:00 0,6 C 91 % 1023,6 hPa 0,0 l/m SW 3,1 km/h (1 Bft)
15.01.2010 16:00 0,3 C 91 % 1024,2 hPa 0,0 l/m W-SW 4,3 km/h (1 Bft)
15.01.2010 17:00 -0,0 C 92 % 1024,7 hPa 0,0 l/m N 1,1 km/h (0 Bft)
15.01.2010 18:00 -0,2 C 93 % 1025,3 hPa 0,0 l/m W-SW 1,7 km/h (1 Bft)
15.01.2010 19:00 -0,3 C 94 % 1025,5 hPa 0,0 l/m W-SW 3,1 km/h (1 Bft)
15.01.2010 20:00 -0,3 C 94 % 1025,7 hPa 0,0 l/m W-SW 3,5 km/h (1 Bft)
15.01.2010 21:00 -0,4 C 94 % 1025,8 hPa 0,0 l/m W-SW 2,0 km/h (1 Bft)
15.01.2010 22:00 -0,6 C 94 % 1025,8 hPa 0,0 l/m N 1,6 km/h (1 Bft)
15.01.2010 23:00 -0,7 C 94 % 1025,9 hPa 0,0 l/m W-SW 3,5 km/h (1 Bft)
16.01.2010 00:00 -0,9 C 94 % 1025,9 hPa 0,0 l/m O 4,3 km/h (1 Bft)
16.01.2010 01:00 -1,1 C 95 % 1025,5 hPa 0,0 l/m O 3,3 km/h (1 Bft)
16.01.2010 02:00 -1,4 C 95 % 1025,4 hPa 0,0 l/m O 6,1 km/h (2 Bft)
16.01.2010 03:00 -1,8 C 96 % 1024,9 hPa 0,0 l/m O-NO 5,9 km/h (2 Bft)
16.01.2010 04:00 -1,8 C 96 % 1024,5 hPa 0,0 l/m O 4,9 km/h (1 Bft)
16.01.2010 05:00 -1,8 C 96 % 1024,3 hPa 0,0 l/m O-NO 4,9 km/h (1 Bft)
16.01.2010 06:00 -2,0 C 95 % 1023,7 hPa 0,0 l/m O-SO 6,4 km/h (2 Bft)
16.01.2010 07:00 -2,3 C 95 % 1023,4 hPa 0,0 l/m O-SO 5,5 km/h (1 Bft)
16.01.2010 08:00 -2,6 C 95 % 1023,0 hPa 0,0 l/m O 6,1 km/h (2 Bft)
16.01.2010 09:00 -2,8 C 95 % 1022,6 hPa 0,0 l/m O 6,9 km/h (2 Bft)
16.01.2010 10:00 -3,6 C 95 % 1022,1 hPa 0,0 l/m O-NO 6,8 km/h (2 Bft)
16.01.2010 11:00 -3,7 C 94 % 1021,2 hPa 0,0 l/m NO 6,1 km/h (2 Bft)
16.01.2010 12:00 -3,1 C 93 % 1020,4 hPa 0,0 l/m NO 8,6 km/h (2 Bft)
16.01.2010 13:00 -2,7 C 93 % 1019,8 hPa 0,0 l/m O-NO 6,4 km/h (2 Bft)
16.01.2010 14:00 -2,9 C 93 % 1019,7 hPa 0,0 l/m O 4,9 km/h (1 Bft)
16.01.2010 15:00 -3,2 C 93 % 1019,5 hPa 0,0 l/m SO 4,4 km/h (1 Bft)
16.01.2010 16:00 -3,6 C 94 % 1019,0 hPa 0,0 l/m O-SO 3,7 km/h (1 Bft)
16.01.2010 17:00 -4,0 C 95 % 1018,7 hPa 0,0 l/m O-SO 2,9 km/h (1 Bft)
16.01.2010 18:00 -4,3 C 95 % 1018,3 hPa 0,0 l/m N 1,9 km/h (1 Bft)
16.01.2010 19:00 -4,5 C 95 % 1017,9 hPa 0,0 l/m N 0,7 km/h (0 Bft)
16.01.2010 20:00 -4,7 C 96 % 1017,1 hPa 0,0 l/m N 1,6 km/h (1 Bft)
16.01.2010 21:00 -4,7 C 96 % 1016,7 hPa 0,0 l/m N 1,7 km/h (1 Bft)
16.01.2010 22:00 -4,5 C 96 % 1016,1 hPa 0,0 l/m N 2,9 km/h (1 Bft)
16.01.2010 23:00 -4,1 C 96 % 1016,5 hPa 0,0 l/m O-SO 2,9 km/h (1 Bft)
17.01.2010 00:00 -2,8 C 98 % 1016,4 hPa 3,4 l/m SW 10,4 km/h (2 Bft)
17.01.2010 01:00 -0,7 C 99 % 1016,4 hPa 3,2 l/m SW 19,4 km/h (3 Bft)
17.01.2010 02:00 0,2 C 99 % 1016,5 hPa 0,8 l/m W-SW 19,8 km/h (4 Bft)
17.01.2010 03:00 0,7 C 99 % 1015,8 hPa 0,2 l/m SW 18,1 km/h (3 Bft)
17.01.2010 04:00 1,0 C 99 % 1015,5 hPa 0,0 l/m SW 14,5 km/h (3 Bft)
17.01.2010 05:00 1,4 C 99 % 1015,3 hPa 0,0 l/m W-SW 21,5 km/h (4 Bft)
17.01.2010 06:00 1,7 C 98 % 1014,9 hPa 0,0 l/m W-SW 22,6 km/h (4 Bft)
17.01.2010 07:00 1,8 C 98 % 1015,1 hPa 0,0 l/m SW 24,8 km/h (4 Bft)
17.01.2010 08:00 2,3 C 97 % 1015,5 hPa 0,0 l/m W-SW 26,4 km/h (4 Bft)
17.01.2010 09:00 3,1 C 97 % 1016,0 hPa 0,0 l/m SW 29,2 km/h (5 Bft)
17.01.2010 10:00 4,0 C 95 % 1016,5 hPa 0,0 l/m SW 35,5 km/h (5 Bft)
17.01.2010 11:00 4,5 C 92 % 1016,9 hPa 0,0 l/m W-SW 32,9 km/h (5 Bft)
17.01.2010 12:00 4,9 C 89 % 1017,4 hPa 0,0 l/m W-SW 32,7 km/h (5 Bft)
17.01.2010 13:00 4,7 C 88 % 1017,5 hPa 0,0 l/m W-SW 34,6 km/h (5 Bft)
17.01.2010 14:00 4,2 C 89 % 1018,0 hPa 0,0 l/m W-SW 29,4 km/h (5 Bft)
17.01.2010 15:00 4,1 C 88 % 1019,1 hPa 0,0 l/m W-SW 27,2 km/h (4 Bft)
17.01.2010 16:00 3,9 C 89 % 1020,6 hPa 0,0 l/m W 26,3 km/h (4 Bft)
17.01.2010 17:00 3,4 C 91 % 1022,0 hPa 0,0 l/m W 24,3 km/h (4 Bft)
17.01.2010 18:00 2,8 C 91 % 1023,1 hPa 0,0 l/m W-SW 10,7 km/h (2 Bft)
17.01.2010 19:00 2,7 C 91 % 1024,0 hPa 0,0 l/m W 13,2 km/h (3 Bft)
17.01.2010 20:00 2,6 C 90 % 1024,6 hPa 0,0 l/m W 13,7 km/h (3 Bft)
17.01.2010 21:00 2,7 C 90 % 1024,8 hPa 0,0 l/m W 14,6 km/h (3 Bft)
17.01.2010 22:00 2,7 C 90 % 1024,8 hPa 0,0 l/m W 13,6 km/h (3 Bft)
17.01.2010 23:00 2,7 C 90 % 1024,8 hPa 0,0 l/m W 14,4 km/h (3 Bft)
Min-Datum _ 11.01.10 11.01.10 13.01.10 - - 11.01.10
_ Min-Zeit 02:10 14:25 05:45 - - 00:00
Minimum _ -5,8 C 85 % 1005,8 hPa - - 0,0 km/h (0 Bft)
Max-Datum _ 17.01.10 11.01.10 15.01.10 17.01.10 - 17.01.10
_ Max-Zeit 13:00 08:55 23:45 00:20 - 11:10
Maximum _ 5,4 C 100 % 1026,1 hPa 3,4 l/m - 41,8 km/h
W-SW (6 Bft)
Durchschnitt _ -1,8 C 94 % 1015,2 hPa #13,4 l/m O-NO 7,0 km/h (2 Bft)